カタログに戻る

INSAT 2B

運用中通信GEO
NORAD 22724·PAYLOAD·🇮🇳 India

打ち上げ Jul 22, 1993 から Guiana Space Centre

Loading…

TLE

最新Source: Space-Track

元期: Sep 14, 2026, 12:35 UTC

1 22724U 93048B   26257.52458017  .00000004  00000-0  00000-0 0  9999
2 22724  14.4785   1.9039 0017623 224.9805 140.6064  0.99986136121476

AllMySatでINSAT 2Bをリアルタイム追跡

Download on the App Store